SL-16 R/B (23343 NORAD) Tracking and Keplerian Element Data

This shows tracking and keplerian element data for the satellite.

Feedback or suggestion? Click here.




ElementValue
Catalog23343
NameSL-16 R/B
Epoch Orbit62854
Epoch Day35.1387481
Epoch Year2025
RAAN76.1723
Inclination97.7584
Eccentricity0.0008077
Argument of Perigee80.671
Mean Anonmoly346.6519
Mean Motion14.78782033
Decay Rate1.017E-05
L11 23343U 94074B 25035.13874810 .00001017 00000+0 14508-3 0 9995
L22 23343 97.7584 76.1723 0008077 80.6710 346.6519 14.78782033628549



Live tracking and technical data element details for SL-16 R/B (NORAD 23343). SL-16 R/B can be tracked NOW for your location showing map with azimuth and elevation plus other details from your city location.







IsCatalogInMostPopularTable: catalog: 23343, numindb: 379
Update: records affected: 1



GetName: 23343 SL-16 R/B

Hit Count: updated at: Fri, 16 May 2025 12:01:29 GMT